Flag Weather past 2 weeks in Manaus, Amazonas, Brazil

Now
77 °F

Clear.


Feels Like: 78 °F
Forecast: 75 / 88 °F
Wind: 5 mph from East

Location: Manaus Aeroporto

Current Time: Nov 22, 2014 at 9:07:06 PM

Latest Report: Nov 22, 2014 at 8:00 PM


Visibility: 10 mi

Pressure: 29.77 "Hg

Humidity: 83%

Dew point: 72 °F

Location of ManausLocation

Historic Weather in Manaus — Graph

°F

Manaus temperature yesterday

Maximum temperature yesterday: 90 °F (at 3:00 PM)
Minimum temperature yesterday: 73 °F (at 1:00 AM)
Average temperature yesterday: 81 °F

Past Weeks' High & Low Weather Summary

 TemperatureHumidityPressure
High93 °F (Nov 8, 2:00 PM)100% (Nov 18, 2:00 AM)30.07 "Hg (Nov 18, 2:00 AM)
Low72 °F (Nov 9, 6:00 PM)24% (Nov 15, 11:00 AM)29.65 "Hg (Nov 12, 4:00 PM)
Average80 °F80%29.82 "Hg
* Reported Nov 7 7:00 PM — Nov 22 7:00 PM, Manaus, Weather by CustomWeather, © 2014

Note: Actual official high and low records may vary slightly from our data, if they occured in-between our weather recording intervals... More about our weather records

Advertising

Manaus weather history for previous 24 hours

 ConditionsComfort  
Time TempWeatherWind HumidityBarometerVisibility
7:00 PM
Nov 22
77 °FClear.3 mph83%29.80 "Hg10 mi
6:00 PM79 °FPassing clouds.2 mph79%29.77 "HgN/A
5:00 PM79 °FPartly sunny.No wind79%29.77 "HgN/A
4:00 PM81 °FBroken clouds.3 mph74%29.80 "HgN/A
3:00 PM81 °FBroken clouds.6 mph74%29.83 "HgN/A
2:00 PM79 °FPartly sunny.7 mph79%29.86 "HgN/A
1:00 PM79 °FPartly sunny.7 mph79%29.89 "HgN/A
12:00 PM79 °FLight rain. Partly sunny.6 mph84%29.92 "HgN/A
11:00 AM81 °FPartly sunny.3 mph79%29.92 "HgN/A
10:00 AM79 °FPartly sunny.5 mph79%29.92 "HgN/A
9:00 AM77 °FPartly sunny.6 mph74%29.92 "HgN/A
8:00 AM77 °FPartly sunny.7 mph83%29.92 "HgN/A
7:00 AM77 °FPartly sunny.6 mph83%29.89 "HgN/A
6:00 AM77 °FPartly sunny.6 mph89%29.86 "HgN/A
5:00 AM77 °FPartly cloudy.8 mph83%29.83 "HgN/A
4:00 AM77 °FThundershowers. Partly cloudy.7 mph89%N/AN/A
3:00 AM77 °FThundershowers. Passing clouds.7 mph89%N/AN/A
2:00 AM77 °FThundershowers. Passing clouds.2 mph83%29.80 "HgN/A
1:00 AM79 °FThundershowers. Passing clouds.3 mph79%29.83 "HgN/A
12:00 AM79 °FThundershowers. Passing clouds.5 mph79%29.83 "HgN/A
11:00 PM
Nov 21
81 °FThundershowers. Passing clouds.5 mph79%29.83 "HgN/A
10:00 PM84 °FThundershowers. Passing clouds.5 mph70%29.83 "HgN/A
9:00 PM82 °FThundershowers. Passing clouds.5 mph74%N/AN/A
Weather by CustomWeather, © 2014

See weather overviewHow to use our weather pages